Location: Vista Encantada
(35.1109°N, 106.5681°W)
Time: 09:13:14
(UTC+00:00)

Cosmos 2082 Rocket - Pass Details

Date: 29 October 2020
Orbit: 832 x 854 km, 71.0° (Epoch: 04 December)

Event Time Altitude Azimuth Distance (km) Brightness Sun altitude
Exits shadow 12:09:30 24° 265° (W) 1,644 3.1 -16.0°
Maximum altitude 12:11:25 30° 299° (WNW) 1,455 2.9 -15.6°
Drops below altitude 10° 12:16:18 10° 360° (N) 2,448 4.5 -14.6°
Sets 12:19:03 0° 11° (N) 3,388 5.4 -14.1°
